OPS 4682 DEB, 38400

Orbit data source: Space-Track

OPS 4682 DEB, 38400 is space debris in LEO originally from a launch on Sat, 03 Apr 1965 UTC launched from the Air Force Western Test Range (AFWTR). Debris objects in space refer to the collection of defunct objects orbiting the Earth. Examples of debris include non-operational satellites, rocket bodies, and fragments generated from explosions, collisions, or faulty payload assembly.

Loading next visibility...
Identifier
38400, 1965-027DD
Orbit
LEO
Country
Flag of USUS
Related business
Manufacturer
Unknown
Mission
Spacecraft
Bus & Motor
Unknown
Mass
Unknown
Launch date (UTC)
1965-04-03 (61 years ago)
Launch vehicle
Unknown
Launch site
Air Force Western Test Range (AFWTR)
Object type
Payload
Rocket body
Debris
Shape & HBR
Unknown shape, 0.1 m
Radar Cross Section
Medium (>0.1 m² and <1 m²)

Expand to show TLE details & history
Last TLE update: 1 day ago

TLE from 1 day ago
0 OPS 4682 DEB
1 38400U 65027DD  26174.26330485  .00000373  00000-0  12400-2 0  9998
2 38400  90.2524  17.3520 0032277 347.7416  12.2916 12.98484265615057
Epoch: 2026-06-23T06:19Z
TLE epoch observation values (Epoch: 2026-06-23T06:19:09.539Z)
Latitude
-0.00005°
Longitude
11.12487°
Altitude
1,246.798 km
Speed
7.243 km/s
True Right ascension
01h 09m 24s
True Declination
0° 00' 00"
Sunlit
Object was in daylight at epoch
Visualization orbit readout
Latitude
Unknown
Longitude
Unknown
Altitude
Unknown
Speed
Unknown
Apparent Right ascension
Unknown
Apparent Declination
Unknown
Sunlit
N/A
Visualization observer readout
Local Sidereal Time
19:26:35
Azimuth
Unknown
Elevation
Unknown
Doppler factor
Unknown
Orbital elements
Apogee altitude
1,289.831 km
Perigee altitude
1,240.49 km
Semi-major axis
7,643.297 km
Eccentricity
0.00323
Inclination
90.2524°
RAAN
17.352°
Arg. of periapsis
347.7416°
True anomaly
12.37065°
Mean anomaly
12.2916°
Eccentric anomaly
12.33109°
Mean motion
3.24804 °/min
Orbital period
110.84 mins
BSTAR
0.00124
Loading maneuver chart data...
Computing Atmospheric mass density...
Loading historical data...
Loading historical data...
Loading historical data...
Loading historical data...
Loading historical data...
Loading historical data...
Loading historical data...

Documentation

Showing up to 5 results
|